Home   Weather   Luckenwalde   Past weeks

Flag for Germany Past Weather in Luckenwalde, Brandenburg, Germany — Yesterday and Last 2 Weeks

Now
34 °F

Partly sunny.


Feels Like: 34 °F
Forecast: 34 / 53 °F
Wind: No wind

Location: Holzdorf

Current Time: Apr 26, 2017 at 8:31:46 am

Latest Report: Apr 26, 2017 at 7:20 am


Visibility: N/A

Pressure: 29.86 "Hg

Humidity: 93%

Dew Point: 32 °F

Location of LuckenwaldeLocation

Past Weather in Luckenwalde — Graph

°F

Luckenwalde Temperature Yesterday

Maximum temperature yesterday: 52 °F (at 9:20 am)
Minimum temperature yesterday: 37 °F (at 11:30 pm)
Average temperature yesterday: 46 °F

High & Low Weather Summary for the Past Weeks

 TemperatureHumidityPressure
High57 °F (Apr 12, 2:20 pm)100% (Apr 18, 12:20 am)30.57 "Hg (Apr 18, 12:20 am)
Low25 °F (Apr 20, 5:20 am)36% (Apr 24, 3:20 pm)29.59 "Hg (Apr 25, 5:20 am)
Average44 °F70%30.05 "Hg
* Reported Apr 11 7:20 am — Apr 26 7:20 am, Luckenwalde, Weather by CustomWeather, © 2017

Note: Actual official high and low records may vary slightly from our data, if they occured in-between our weather recording intervals... More about our weather records

Advertising

Luckenwalde Weather History for the Previous 24 Hours

Scroll right to see more
 ConditionsComfort  
Time TempWeatherWind HumidityBarometerVisibility
7:20 am
Wed, Apr 26
34 °FPartly sunny.No wind93%29.86 "HgN/A
6:20 am32 °FPartly sunny.1 mph93%29.83 "HgN/A
5:20 am30 °FPassing clouds.1 mph100%29.83 "HgN/A
4:20 am30 °FPartly cloudy.1 mph93%29.83 "HgN/A
3:20 am30 °FPartly cloudy.No wind93%29.80 "HgN/A
2:20 am30 °FPassing clouds.1 mph100%29.80 "HgN/A
1:20 am30 °FPassing clouds.2 mph93%29.80 "HgN/A
12:20 am34 °FPassing clouds.No wind87%29.80 "HgN/A
11:30 pm
Tue, Apr 25
37 °FPassing clouds.1 mph81%29.80 "HgN/A
10:20 pm43 °FPassing clouds.5 mph66%29.80 "HgN/A
9:20 pm43 °FPassing clouds.8 mph61%29.77 "HgN/A
8:20 pm48 °FPassing clouds.14 mph50%29.74 "HgN/A
7:20 pm48 °FPartly sunny.7 mph54%29.74 "HgN/A
6:20 pm50 °FPartly sunny.12 mph50%29.71 "HgN/A
5:20 pm50 °FPartly sunny.14 mph50%29.71 "HgN/A
4:20 pm48 °FPartly sunny.15 mph54%29.71 "HgN/A
3:24 pm46 °FBroken clouds.10 mph71%29.71 "HgN/A
2:20 pm46 °FLight rain. Broken clouds.13 mph71%29.71 "HgN/A
1:20 pm46 °FLight rain. Partly sunny.12 mph71%29.71 "HgN/A
12:20 pm45 °FLight rain. Broken clouds.10 mph76%29.68 "HgN/A
11:20 am46 °FPartly sunny.12 mph66%29.65 "HgN/A
10:50 am48 °FBroken clouds.9 mph66%29.65 "HgN/A
10:20 am48 °FPartly sunny.14 mph71%29.62 "HgN/A
9:20 am52 °FPartly sunny.16 mph54%29.59 "HgN/A
8:20 am48 °FPartly sunny.7 mph66%29.59 "HgN/A
Weather by CustomWeather, © 2017

See weather overviewHow to use our weather pages